Showing default

KINEIS-2A, 62932

Orbit data source: Space-Track

KINEIS-2A, 62932 is a French payload satellite in SSO that was launched on Sat, 08 Feb 2025 UTC via an ELECTRON launch vehicle from the Rocket Lab Launch Complex (RLLC). Payload-class satellites include a variety of spacecraft equipped with specific instruments for various scientific and technological missions. These include communications satellites like Starlink; space stations such as the ISS; scientific satellites like the Hubble; Earth observation satellites from companies like Planet Labs, Umbra, and HawkEye 360; GPS; miniature CubeSats for education and research; and military/defense satellites.

Loading next visibility...
Identifier
62932, 2025-028E
Orbit
SSO
Last TLE update
10 hours ago
Origin
Manufacturer
KINEIS
Mission
Operational Commercial Communications
Bus & Motor
CUBESAT 16U, Unknown motor
Mass
28 kg wet, 28 kg dry
Launch date (UTC)
2025-02-08 (5 months ago)
Launch vehicle
ELECTRON
Launch site
Rocket Lab Launch Complex (RLLC)
Object type
Payload
Rocket body
Debris
Shape & HBR
Box + 2 Pan + 1 Ant, 1.6 m
Radar Cross Section
0.229 m², Medium (>0.1 m² and < 1m²)

Expand to show TLE details & history

TLE from 10 hours ago
0 KINEIS-2A
1 62932U 25028E   25183.71528220  .00001068  00000-0  17662-3 0  9995
2 62932  98.0139 237.4056 0002754 171.2451 188.8805 14.72332478 21181
Epoch: 2025-07-02T17:10Z
TLE epoch observation values (Epoch: 2025-07-02T17:10:00.382Z)
Latitude
0.00001°
Longitude
58.9116°
Altitude
658.553 km
Speed
7.527 km/s
True Right ascension
15h 49m 37s
True Declination
0° 00' 00"
Sunlit
Object was in full shadow at epoch
Visualization orbit readout
Latitude
51.01764°
Longitude
-110.69865°
Altitude
660.386 km
Speed
7.533 km/s
Apparent Right ascension
03h 52m 22s
Apparent Declination
8° 30' 06"
Sunlit
Object is in daylight
Visualization observer readout
Local Sidereal Time
15:17:15
Azimuth
348.48° N
Elevation
-40.905°
Doppler factor
1
Orbital elements
Apogee altitude
652.624 km
Perigee altitude
648.752 km
Semi-major axis
7,028.825 km
Eccentricity
0.00028
Inclination
98.0139°
RAAN
237.4056°
Arg. of periapsis
171.2451°
True anomaly
Unknown
Mean anomaly
188.8805°
Eccentric anomaly
Unknown
Mean motion
3.68315 °/min
Orbital period
97.74 mins
BSTAR
0.00017662
Loading maneuver chart data...
Loading SW <> Apogee altitude chart data...
Loading historical data...
Loading historical data...
Loading historical data...
Loading historical data...
Loading historical data...
Loading historical data...
Loading historical data...

KINEIS-2A Visibility forecast

Observer location: undefined°, undefined°

Span
Click to sort rows by Start time (UTC) header in descending order
Start Az.
Max El. time (UTC)
Max El. Az.
Max El.
End time (UTC)
End Az.
5 mins2025-07-03 04:43:03.348Z230.785° WSW2025-07-03 04:45:03.348Z259.495° W16.47°2025-07-03 04:48:03.348Z304.485° NW
7 mins2025-07-03 16:35:03.348Z8.863° NNE2025-07-03 16:38:03.348Z260.638° W44.507°2025-07-03 16:42:03.348Z198.058° SSW
|